Hourly Data Report for October 11, 2016

TORONTO CITY
ONTARIO

43°40'00.000" N
79°24'00.000" W
112.50 m
6158355
71508
XTO

Download Data

Hourly Data (October 2016)
Hourly Data Report for October 11, 2016
TIME
LST
Temp Definition
°C
Dew Point Definition
°C
Rel Hum Definition
%
Precip. Amount Definition
mm

Wind Dir Definition
10's deg

Wind Spd Definition
km/h
Visibility Definition
km
Stn Press Definition
kPa
Hmdx Definition


Wind Chill Definition


Weather Definition


00:00 8.1 3.3 72 0.0 LegendMM LegendMM   101.59     LegendNANA
01:00 7.2 3.2 76 0.0 LegendMM LegendMM   101.55     LegendNANA
02:00 6.8 3.4 79 0.0 LegendMM LegendMM   101.55     LegendNANA
03:00 6.9 3.7 80 0.0 LegendMM LegendMM   101.52     LegendNANA
04:00 6.7 3.6 81 0.0 LegendMM LegendMM   101.52     LegendNANA
05:00 7.0 3.6 79 0.0 LegendMM LegendMM   101.52     LegendNANA
06:00 6.1 3.4 83 0.0 LegendMM LegendMM   101.52     LegendNANA
07:00 6.9 3.3 77 0.0 LegendMM LegendMM   101.55     LegendNANA
08:00 9.9 5.0 71 0.0 LegendMM LegendMM   101.58     LegendNANA
09:00 12.3 5.9 65 0.0 LegendMM LegendMM   101.57     LegendNANA
10:00 14.2 5.1 54 0.0 LegendMM LegendMM   101.55     LegendNANA
11:00 14.8 6.2 56 0.0 LegendMM LegendMM   101.51     LegendNANA
12:00 15.7 8.1 60 0.0 LegendMM LegendMM   101.43     LegendNANA
13:00 16.1 8.2 59 0.0 LegendMM LegendMM   101.31     LegendNANA
14:00 15.6 8.2 61 0.0 LegendMM LegendMM   101.25     LegendNANA
15:00 15.5 8.3 62 0.0 LegendMM LegendMM   101.21     LegendNANA
16:00 15.2 8.0 62 0.0 LegendMM LegendMM   101.14     LegendNANA
17:00 15.1 7.7 61 0.0 LegendMM LegendMM   101.11     LegendNANA
18:00 14.8 7.6 62 0.0 LegendMM LegendMM   101.10     LegendNANA
19:00 14.4 8.3 67 0.0 LegendMM LegendMM   101.07     LegendNANA
20:00 14.5 7.2 62 0.0 LegendMM LegendMM   101.04     LegendNANA
21:00 14.7 6.8 59 0.0 LegendMM LegendMM   100.97     LegendNANA
22:00 13.5 7.7 68 0.0 LegendMM LegendMM   100.96     LegendNANA
23:00 12.6 8.5 76 0.0 LegendMM LegendMM   100.93     LegendNANA

Notes on Data Quality.

Legend

  • E = Estimated
  • M = Missing
  • NA = Not Available*
  • [empty] = Indicates an unobserved value
Date modified: